Regional Weather Roundup
Issued by NWS San Diego, CA

Home | Current Version | Previous Version | Text Only | Print | Product List | Glossary On
Versions: 1 2 3 4 5 6 7 8 9 10 11 12 13 14 15 16 17 18 19 20 21 22 23 24 25 26 27 28 29 30 31 32 33 34 35 36 37 38 39 40 41 42 43 44 45 46 47 48 49 50
000
ASUS46 KSGX 240811
RWRSGX

SAN DIEGO HOURLY WEATHER ROUNDUP
NATIONAL WEATHER SERVICE SAN DIEGO CA
100 AM PDT TUE MAY 24 2016

NOTE: "FAIR" INDICATES FEW OR NO CLOUDS BELOW 12,000 FEET WITH NO
SIGNIFICANT WEATHER AND/OR OBSTRUCTIONS TO VISIBILITY.

CAZ042-043-060-061-PZZ750-775-240900-

GREATER SAN DIEGO AREA

CITY           SKY/WX    TMP DP  RH WIND       PRES   REMARKS
LINDBERGH FLD  MOCLDY    63  51  65 SE7       29.96F
POINT LOMA       N/A     59  49  69 W10         N/A
NATIONAL CITY    N/A     62  53  72 S3        29.96S
CHULA VISTA      N/A     60  53  76 SW2       29.88S
IMPERIAL BEACH CLOUDY    63  50  62 S3        29.97S
BROWN FIELD    CLOUDY    58  49  72 SE8       29.96S
MIRAMAR MCAS   MOCLDY    62  48  60 SE7       29.95S
MONTGOMERY FLD CLOUDY    60  48  64 SE7       29.96S

$$

NORTH SAN DIEGO COUNTY

CITY           SKY/WX    TMP DP  RH WIND       PRES   REMARKS
CAMP PENDLETON CLOUDY    54  48  80 CALM      29.94F
OCEANSIDE AP   CLOUDY    60  47  61 E5        29.94S
OCEANSIDE HBR    N/A     61  52  73 E5        29.96F
VISTA            N/A     58  50  73 CALM      29.93F
CARLSBAD       CLOUDY    60  48  64 SE8       29.94F
DEL MAR          N/A     60  51  72 CALM      29.98S
LA JOLLA SCRIP   N/A     60  53  76 E3        29.94F
FALLBROOK        N/A     57  51  82 CALM      29.94S
ESCONDIDO        N/A     58  48  68 SE7       29.97S
SAN MARCOS       N/A     58  47  67 CALM      29.93F
POWAY            N/A     58  48  70 CALM      29.97S

$$

EAST SAN DIEGO COUNTY

CITY           SKY/WX    TMP DP  RH WIND       PRES   REMARKS
RAMONA         CLOUDY    54  44  69 S5        29.96S
SANTEE LAKES     N/A     59  50  72 CALM      29.95S
LA MESA          N/A     58  48  71 CALM      29.89S
JAMUL            N/A     56  47  72 CALM      29.96S
DESCANSO N       N/A     46  42  88 CALM      29.84S
MT. LAGUNA OBS   N/A     35  27  75 W14       29.53F WCI  25
CAMPO            N/A     49  43  80 W10       29.92S

$$

ORANGE COUNTY AND THE LOS ANGELES BASIN

CITY           SKY/WX    TMP DP  RH WIND       PRES   REMARKS
JOHN WAYNE AP  CLOUDY    61  50  67 SE3       29.93S
LAKE FOREST FR   N/A     57  46  67 CALM      29.82F
HUNTINGTON BCH   N/A     58  53  82 CALM      29.95S
LOS ALAMITOS   FAIR      58  52  80 CALM      29.92F
FULLERTON      MOCLDY    62  51  67 CALM      29.92S
LONG BEACH     CLEAR     59  52  77 NW5       29.93S
L.A. AP        PTCLDY    58  52  80 SW6       29.93S
L.A. DOWNTOWN  PTCLDY    59  52  77 CALM      29.92F

$$

THE INLAND EMPIRE

CITY           SKY/WX    TMP DP  RH WIND       PRES   REMARKS
CORONA         CLOUDY    55  47  74 CALM      29.94
CHINO          MOCLDY    58  48  69 SW5       29.94S
ONTARIO        MOCLDY    58  48  69 SW8       29.92F
RIVERSIDE AP   CLEAR     57  48  72 NE3       29.93S
MORENO VALLEY    N/A     55  51  87 S1        28.05S
MARCH ARB      MOCLDY    55  47  74 SE10      29.93S
HORSETHIEF CYN   N/A     51  39  65 W1        29.96S
PERRIS           N/A     54  50  85 S7        29.94S
HEMET EAST       N/A     53  45  75 CALM      29.85S
FRENCH VALLEY  FAIR      54  45  71 S8        29.95S
TEMECULA         N/A     56  50  79 SW6       29.92S

$$

SAN BERNARDINO AND RIVERSIDE COUNTY MOUNTAINS

CITY           SKY/WX    TMP DP  RH WIND       PRES   REMARKS
BIG BEAR AP    CLEAR     36  27  69 SW3       29.94S
ANGELUS OAKS     N/A     40  36  85 CALM      29.80F
PINE COVE        N/A     38  36  92 N3        29.87S

$$

SOUTHERN DESERT INCLUDING THE COACHELLA VALLEY

CITY           SKY/WX    TMP DP  RH WIND       PRES   REMARKS
PALM SPRINGS   CLEAR     68  43  40 NW17G23   29.78R
THOUSAND PALMS   N/A     65  46  50 W17       29.76R
PALM DESERT      N/A     65  47  51 CALM      32.03R
THERMAL        CLEAR     67  45  45 NW23G37   29.74R
BLYTHE         CLEAR     70  47  43 S18       29.73R
IMPERIAL AP    CLEAR     67  38  34 W17G31    29.76R HAZE
EL CENTRO NAS  CLEAR     66  38  35 W26       29.79R
YUMA AZ        CLEAR     69  36  29 CALM      29.77
MEXICALI       CLEAR     66  37  34 N7        29.76S

$$

UPPER DESERT

CITY           SKY/WX    TMP DP  RH WIND       PRES   REMARKS
VICTORVILLE AP CLEAR     52  43  71 S13       29.87R
HESPERIA         N/A     50  44  80 W12       29.96F
PALMDALE       CLEAR     54  44  69 SW15      29.88R
LANCASTER      CLEAR     53  42  66 SW15      29.88R
EDWARDS AFB    PTCLDY    54  41  61 SW16      29.84S
DAGGETT        CLEAR     62  39  42 SW25      29.81R
29 PALMS N     CLEAR     62  31  31 W14       29.87R
NEEDLES        CLEAR     77  31  18 SW14      29.70R

$$

REGIONAL REPORTS

CITY           SKY/WX    TMP DP  RH WIND       PRES   REMARKS
SANTA BARBARA  PTCLDY    55  47  74 CALM      29.91R
SANDBERG       CLOUDY    47  40  76 S10       29.94S
LAS VEGAS NV   PTCLDY    69  33  26 SW21G32   29.68F
PHOENIX AZ     CLEAR     74  27  17 S7        29.77R
TIJUANA        CLOUDY    59  46  63 E7        29.99
ENSENADA NW      N/A     60  32  35 NW1       29.96R

$$

OFFSHORE ISLANDS

CITY           SKY/WX    TMP DP  RH WIND       PRES   REMARKS
CATALINA ARPT  MOCLDY    51  49  92 W12       29.95S
SAN NICOLAS IS CLOUDY   N/A N/A N/A W18G26    29.94S

$$

MARINE AND OFFSHORE BUOY REPORTS

STATION/POSITION SKY/WX   TEMP    WIND        PRES    SWELL
                          AIR SEA DIR/SP/G            HT/PER/DIR
                          (F)     (DEG/KT/KT) (MB)    (FT/S/D)
TANNER BANKS               60 61  300/ 14/ 17 1014.8R   3/260/15
S CLEMENTE BASIN           60 62  290/ 12/ 16 1014.2S   3/300/ 7
SAN NICOLAS IS.               60                N/A     2/220/17
SO. S. ROSA ISLA           57 58  300/ 14/ 16 1014.1R   2/310/ 9
W. S. BARBARA CH           55 55  320/ 12/ 14 1013.3S   3/320/10
M. S. BARBARA CH           58 59  290/ 12/ 16 1013.1R
S. MONICA BASIN            59 64  250/  4/  6 1013.5R   5/270/ 6
S PEDRO CHANNEL               64                N/A
OCEANSIDE OFFSHR              65                N/A     2/200/13
TORREY PINES OTR              66                N/A     2/210/13
LA JOLLA 1                 62 65  160/  5/  7 1014.0S
SAN DIEGO BAY                 68              1014.5F
POINT LOMA SOUTH              65                N/A     2/190/13

$$




USA.gov is the U.S. government's official web portal to all federal, state and local government web resources and services.